Helicity
393 374 332 287 270 229 214 224 247 126 149 150 154 178 202 204 212 237 230 248 267 265 240 206 206 193 191 164 148 142 144 227 194 385 331 335 239 223 137 85 77 85 78
293 256 239 238 221 178 188 211 220 227 121 168 165 152 186 214 202 231 224 272 242 241 218 213 177 194 139 121 142 126 174 196 254 442 424 272 293 181 261 187 178 75 84
235 222 231 254 257 235 220 260 277 297 328 239 195 199 204 214 226 239 240 256 243 206 205 169 134 113 134 125 150 195 203 265 284 354 300 321 299 295 305 209 166 98 198
321 345 353 364 321 264 257 267 335 356 362 369 368 275 264 261 270 251 227 226 226 204 121 127 108 123 133 141 181 172 198 271 235 254 311 329 285 249 254 221 276 278 235
386 379 360 313 312 322 315 333 297 329 296 267 294 348 395 423 406 349 284 202 216 268 128 138 130 115 107 107 169 206 255 267 273 290 375 341 314 297 247 273 188 267 254
185 247 297 275 289 306 297 288 244 280 236 213 232 219 249 231 288 243 287 231 191 143 145 93 118 108 104 94 183 214 212 267 235 271 321 229 220 239 263 258 294 267 220
107 113 190 267 271 273 255 312 332 321 273 244 207 225 216 241 264 194 270 334 449 262 225 124 134 152 134 171 250 369 448 465 298 286 321 279 207 183 228 237 233 239 227
89 84 82 101 118 163 197 218 222 237 217 211 261 261 286 319 300 164 205 335 325 403 440 290 233 215 188 203 251 331 400 404 338 337 352 303 273 279 218 187 166 282 422
109 102 84 78 57 53 84 124 145 162 174 186 208 245 267 291 337 316 133 62 212 293 394 449 329 296 279 263 267 338 379 381 365 420 433 456 444 485 448 350 412 443 526
102 78 72 69 73 80 78 66 43 37 68 80 115 143 206 207 357 412 307 243 233 220 211 237 421 369 216 221 305 264 368 313 344 379 355 496 543 519 587 467 397 416 496
62 45 57 59 61 77 72 76 64 65 65 67 63 91 113 164 188 233 258 201 176 222 200 170 126 194 331 319 294 349 288 285 369 391 412 441 504 524 480 510 545 408 351
55 53 53 48 39 44 62 74 77 75 80 86 91 90 94 74 113 123 117 134 144 147 190 190 167 205 165 299 360 367 416 331 327 407 443 550 550 553 529 573 536 568 588
37 55 55 54 57 53 67 80 78 78 72 68 57 59 70 83 91 116 98 93 92 49 86 156 215 224 259 260 235 296 313 369 337 357 430 419 475 506 544 450 571 587 644
39 37 35 32 30 41 41 50 58 74 71 77 79 76 71 84 107 104 85 84 88 69 71 93 129 172 216 209 231 266 241 222 241 286 289 324 322 384 561 516 484 532 677
30 34 35 28 34 27 20 28 23 45 61 44 56 61 84 91 103 112 102 84 62 68 85 115 140 135 146 188 201 211 206 191 181 151 144 163 175 162 225 233 238 242 246
24 22 22 17 20 27 32 24 51 67 97 106 112 84 65 100 99 102 124 120 121 105 104 122 143 158 173 163 157 162 181 187 169 135 128 121 124 124 136 149 145 159 166
21 22 12 13 15 20 26 31 33 31 61 114 138 136 139 135 136 111 93 132 170 128 134 140 141 151 151 149 153 162 177 190 171 167 154 145 117 108 105 112 118 119 139
31 37 32 31 30 30 27 25 25 43 55 64 86 119 141 158 168 169 114 110 132 160 146 150 155 159 163 160 154 153 146 145 155 160 158 150 150 151 158 163 170 174 177
46 48 42 34 32 32 35 42 48 59 69 81 91 107 122 125 153 198 198 152 143 145 134 136 144 147 147 146 149 155 165 175 173 171 179 174 170 160 171 173 180 189 160
43 45 35 34 36 37 38 43 47 53 60 69 81 101 112 112 145 154 152 147 149 153 156 152 143 140 148 152 149 144 141 154 162 164 167 165 163 158 157 156 155 157 165
54 58 61 59 63 59 51 54 51 53 58 59 60 58 73 87 101 116 126 141 144 139 138 142 151 161 161 162 163 167 173 175 184 183 178 174 167 158 154 148 146 153 155
64 69 73 77 73 76 71 53 50 52 54 62 47 45 54 63 78 91 101 111 118 125 129 128 127 134 142 149 151 149 149 153 157 160 155 148 143 143 139 144 147 150 148
72 82 84 83 81 83 82 77 58 55 58 54 52 47 45 53 59 68 70 81 93 98 100 104 113 120 123 127 130 133 133 136 135 137 141 137 132 129 128 128 130 131 136
72 80 85 88 87 87 91 90 83 70 63 55 45 47 48 47 47 54 54 56 68 77 81 86 95 102 102 115 121 122 122 123 116 116 123 122 114 112 113 115 120 125 133
63 74 75 75 75 76 80 87 87 91 87 72 58 52 46 48 49 48 53 52 55 59 68 69 75 79 92 99 104 108 111 129 127 119 109 111 116 115 116 118 126 125 133
58 62 63 64 67 67 69 70 72 72 73 74 71 62 57 53 51 50 50 48 50 51 58 59 56 62 59 64 74 82 99 114 123 123 108 104 111 117 115 118 118 108 105
Wind_Speed
38 42 44 49 51 52 54 56 64 61 58 62 58 57 56 55 52 48 48 48 46 46 43 42 42 45 51 46 37 33 30 31 32 44 48 42 36 44 42 35 43 42 39
38 39 42 44 46 48 50 54 57 59 56 54 57 60 63 61 57 54 54 52 49 47 47 49 48 51 56 52 41 32 28 23 23 30 41 38 46 42 44 42 45 49 47
39 41 44 46 48 50 52 55 56 60 61 63 61 64 63 63 62 57 53 52 49 47 46 48 54 59 56 53 45 33 29 26 23 28 39 40 42 40 43 49 48 40 36
40 43 45 48 49 50 51 53 55 57 58 64 64 64 63 61 62 62 57 52 50 49 47 48 54 51 54 49 36 30 28 23 23 26 26 33 43 44 40 39 38 36 29
43 44 46 46 48 48 51 53 53 53 53 54 52 54 56 56 62 67 64 56 55 51 51 52 48 51 53 46 43 37 31 27 25 29 30 34 39 42 40 33 36 32 35
44 43 45 45 46 46 46 47 46 47 48 48 49 49 52 56 64 65 63 62 54 55 49 54 55 52 54 51 37 32 28 26 30 26 28 28 32 35 40 35 35 38 43
49 50 48 46 46 46 45 45 45 46 46 47 48 50 53 57 62 61 58 57 60 59 53 47 55 53 50 47 42 41 41 42 39 31 29 31 33 29 30 34 40 40 41
50 52 54 54 52 48 46 46 46 46 45 48 48 49 51 56 57 54 50 46 47 56 53 56 52 53 52 45 38 38 41 44 48 43 38 39 46 46 37 33 34 39 45
53 52 52 54 54 54 53 50 48 47 47 46 47 48 49 51 54 52 45 39 39 44 44 46 47 47 50 46 41 37 38 38 34 34 34 36 43 50 48 41 42 42 49
56 56 57 56 55 54 53 53 52 51 48 46 47 48 50 50 55 53 48 45 42 40 42 43 42 41 46 43 44 41 43 45 40 41 46 46 47 46 48 50 51 48 47
56 56 57 57 56 57 56 55 54 52 52 52 51 51 50 52 52 54 49 42 40 39 39 39 37 35 39 38 39 38 40 37 41 40 41 41 40 42 44 44 44 40 41
58 58 58 58 57 57 56 56 55 54 53 53 53 52 53 53 54 52 49 45 42 37 38 39 38 40 36 35 35 31 32 35 37 38 38 40 41 35 35 34 30 30 31
57 59 59 58 58 58 58 58 57 56 55 54 53 53 53 54 52 53 51 48 46 42 41 40 39 39 38 37 31 32 32 35 31 31 33 36 37 32 28 28 27 25 25
58 58 59 58 58 58 57 57 58 58 57 56 56 56 55 55 56 55 52 50 47 44 42 40 39 38 38 36 35 34 31 31 29 29 30 30 36 36 34 32 30 29 28
59 60 60 60 60 59 57 58 56 57 57 56 57 56 58 58 58 57 54 51 47 44 41 41 40 39 38 39 37 35 33 31 30 28 29 31 32 35 32 32 31 31 28
61 62 62 60 60 60 60 58 55 56 58 57 57 57 56 57 56 55 54 51 48 44 43 42 41 40 39 37 37 36 35 35 33 33 34 35 35 37 35 33 31 31 31
62 63 62 61 61 61 62 62 63 59 57 59 60 60 59 59 57 54 50 49 48 44 42 42 41 40 40 40 39 38 38 39 36 36 36 36 36 35 36 35 34 33 33
63 64 64 63 63 63 63 62 61 62 63 63 61 61 60 59 58 56 51 48 48 47 44 44 43 43 41 40 39 38 38 38 37 37 36 36 35 35 35 35 36 36 35
64 65 65 63 62 62 62 62 62 62 62 63 62 61 60 57 55 55 52 49 49 48 46 44 44 43 42 41 40 40 38 38 37 37 36 36 36 35 35 35 34 35 36
66 67 66 65 65 65 64 64 64 64 64 64 64 64 63 59 58 57 54 52 50 49 48 46 45 45 44 44 43 42 40 39 38 38 37 37 36 36 36 36 37 38 39
67 67 67 66 66 66 65 64 63 63 64 63 62 61 61 59 58 57 56 54 53 51 49 48 47 46 46 45 45 44 43 42 41 40 39 39 38 38 38 38 38 39 39
67 68 68 68 68 67 66 64 63 63 63 63 61 59 59 58 57 56 54 53 51 50 48 46 45 45 44 44 44 43 43 42 42 41 41 40 40 39 39 39 39 41 41
68 70 69 69 68 68 67 65 64 63 63 61 59 60 58 57 56 54 52 51 50 49 47 45 44 43 43 42 42 42 42 42 43 43 43 42 41 41 41 41 42 42 42
68 68 69 69 69 68 68 67 64 62 60 58 58 57 56 55 55 52 50 49 48 46 45 43 43 42 43 43 43 42 42 42 42 42 43 42 42 42 42 42 42 43 44
66 68 68 67 66 65 63 62 60 58 55 55 55 54 52 51 51 51 49 48 46 45 44 43 42 41 42 41 41 42 43 43 43 43 43 43 43 43 44 44 45 45 46
65 64 63 62 62 61 61 60 58 56 54 53 52 52 51 49 49 48 48 47 46 44 43 42 41 41 41 41 41 42 43 44 44 44 43 43 44 44 44 44 46 46 46
Wind_Direction
296 295 292 290 288 286 283 278 274 272 270 270 270 271 271 270 272 272 275 278 276 278 272 271 280 288 296 297 296 289 273 270 253 279 277 272 252 237 253 249 260 262 265
306 303 301 298 296 293 293 286 284 283 277 277 276 275 274 274 274 273 275 277 274 274 272 274 281 288 292 295 296 285 273 263 257 266 276 266 263 246 251 258 266 268 269
312 311 309 304 299 297 295 296 293 289 288 286 283 280 278 276 275 275 275 274 274 271 271 274 281 285 289 292 295 289 279 279 255 272 272 271 263 251 258 266 269 273 271
323 318 312 307 305 302 302 302 301 298 297 292 291 285 283 281 278 277 276 272 270 273 275 275 278 280 285 291 289 287 283 273 258 266 268 263 261 260 258 259 260 269 261
334 330 325 318 317 313 310 306 307 311 308 304 298 297 293 291 289 284 282 273 271 272 274 277 274 278 283 287 285 285 284 271 266 270 273 264 260 260 256 253 245 255 265
348 339 333 331 330 325 323 321 319 320 318 316 310 306 302 297 295 289 285 284 280 273 277 274 275 277 281 283 280 272 267 268 261 261 266 248 249 257 264 255 249 254 262
2 358 350 341 335 333 333 333 329 327 326 323 317 312 308 304 303 298 290 287 285 282 283 281 276 277 280 284 287 282 282 282 275 269 256 250 253 254 261 250 251 250 262
1 1 359 358 356 348 343 339 338 334 333 331 326 322 317 314 312 308 300 290 296 293 287 281 279 277 280 278 282 285 285 284 280 279 277 270 272 276 266 250 246 264 272
360 357 355 357 358 359 358 352 345 342 339 337 334 331 330 328 325 317 312 313 296 303 305 296 285 281 284 280 278 277 282 285 295 291 287 284 279 280 280 273 265 257 268
356 356 357 357 357 354 355 356 357 357 354 349 348 343 340 334 335 331 323 309 311 309 306 304 303 296 289 289 280 279 279 281 285 288 289 285 287 287 286 282 278 265 272
354 356 357 357 358 357 358 358 356 357 360 360 358 353 350 347 344 348 344 335 326 320 308 310 315 318 306 299 292 285 281 284 291 289 293 292 292 294 292 290 290 277 270
356 357 357 357 358 358 356 355 356 355 354 353 353 354 354 353 353 351 353 348 343 333 329 316 316 333 323 314 309 303 294 290 288 291 293 295 289 298 302 304 301 299 299
355 356 357 359 358 358 355 353 352 352 349 349 349 348 346 347 346 349 351 352 354 351 348 345 341 339 340 335 325 316 311 303 302 296 298 295 297 299 302 308 310 314 316
354 353 353 354 354 355 353 351 349 348 346 346 345 344 343 343 344 343 343 345 347 352 350 351 349 345 344 342 333 332 325 323 307 306 305 306 300 299 299 303 302 308 312
352 350 347 347 347 348 350 349 347 348 347 342 339 339 336 336 338 341 340 338 339 342 345 346 343 342 339 342 341 339 337 332 325 316 313 308 305 305 310 309 310 308 305
347 346 346 345 344 343 342 340 346 345 345 344 344 340 336 337 337 339 341 342 341 339 336 335 336 338 337 333 335 335 335 329 328 320 311 306 303 302 308 313 315 309 303
346 344 343 343 342 340 339 337 333 334 337 337 336 335 335 333 333 333 335 340 340 337 334 332 331 331 328 326 326 323 322 319 324 318 315 314 311 311 309 310 310 311 309
341 341 340 339 338 337 337 336 335 333 330 329 332 333 331 331 331 330 326 328 327 330 328 326 325 326 326 325 326 326 323 321 320 319 318 317 317 316 315 315 312 311 311
340 339 338 338 337 336 335 334 333 332 330 329 329 330 330 329 330 331 330 326 322 321 322 322 322 321 322 322 322 322 322 322 322 322 322 322 320 319 319 319 319 317 314
338 336 335 334 333 332 331 329 328 328 327 326 326 326 325 325 323 323 324 323 321 320 319 318 318 318 317 316 316 316 317 317 317 317 317 317 318 318 317 317 316 314 314
336 335 334 333 332 330 328 327 326 325 324 324 324 325 325 323 320 319 319 318 317 316 316 315 315 316 315 315 313 312 312 312 313 313 313 313 314 314 315 316 316 316 315
336 334 333 331 330 329 327 325 324 323 322 321 321 323 324 323 321 319 318 317 317 316 316 315 315 316 316 315 313 312 310 309 310 310 310 310 310 311 312 312 313 313 314
336 334 332 331 330 328 326 324 320 319 318 319 320 319 320 320 320 319 318 317 316 315 315 314 313 314 316 316 316 315 311 309 308 307 306 307 307 308 308 309 310 311 312
338 336 334 331 329 327 326 324 321 319 318 318 319 318 318 317 316 319 319 319 318 316 315 314 314 313 314 315 314 314 313 311 309 307 307 306 306 307 307 308 308 309 309
339 336 334 333 332 331 330 329 327 325 323 322 321 320 320 319 318 318 320 319 317 316 315 314 313 313 315 315 316 315 315 313 310 307 306 306 306 306 306 306 306 307 308
340 338 337 337 335 334 332 330 329 328 327 325 324 323 321 319 319 319 319 318 316 316 316 314 313 313 313 314 315 315 315 315 313 310 308 306 305 306 306 306 305 306 306